Flag for U.S.A. Weather past 2 weeks in Cape Canaveral, Florida, U.S.A.

Now
76 °F

Sunny.


Feels Like: 75 °F
Forecast: 74 / 84 °F
Wind: 1 mph from Northeast

Location: Cape Kennedy

Current Time: Sep 30, 2014 at 8:43:55 PM

Latest Report: Sep 30, 2014 at 7:58 PM


Visibility: 10 mi

Pressure: 29.85 "Hg

Humidity: 95%

Dew point: 74 °F

Location of Cape CanaveralLocation

Historic Weather in Cape Canaveral — Graph

°F

Cape Canaveral temperature yesterday

Maximum temperature yesterday: 87 °F (at 12:58 PM)
Minimum temperature yesterday: 73 °F (at 9:58 PM)
Average temperature yesterday: 78 °F

Past Weeks' High & Low Weather Summary

 TemperatureHumidityPressure
High89 °F (Sep 16, 12:58 PM)100% (Sep 26, 11:48 PM)30.14 "Hg (Sep 26, 11:48 PM)
Low71 °F (Sep 22, 6:58 PM)57% (Sep 16, 1:58 PM)29.80 "Hg (Sep 30, 4:03 PM)
Average78 °F85%29.97 "Hg
* Reported Sep 15 6:58 PM — Sep 30 6:58 PM, Cape Canaveral, Weather by CustomWeather, © 2014

Note: Actual official high and low records may vary slightly from our data, if they occured in-between our weather recording intervals... More about our weather records

Advertising

Cape Canaveral weather history for previous 24 hours

 ConditionsComfort  
Time TempWeatherWind HumidityBarometerVisibility
6:58 PM
Sep 30
77 °FSunny.3 mph94%29.83 "Hg10 mi
6:02 PM77 °FThundershowers. Sunny.1 mph94%29.82 "Hg10 mi
5:00 PM79 °FThunderstorms. Scattered clouds.No wind84%29.82 "Hg10 mi
4:03 PM79 °FHeavy rain. Fog.2 mph89%29.80 "Hg0 mi
3:51 PM81 °FRain. Broken clouds.6 mph84%29.81 "Hg6 mi
2:58 PM83 °FSunny.1 mph73%29.81 "Hg10 mi
1:58 PM83 °FSunny.8 mph78%29.83 "Hg10 mi
12:58 PM79 °FSunny.2 mph89%29.85 "Hg10 mi
12:48 PM77 °FLight rain. Passing clouds.3 mph94%29.84 "Hg7 mi
11:58 AM82 °FPassing clouds.6 mph77%29.86 "Hg10 mi
10:58 AM81 °FSunny.10 mph79%29.87 "Hg10 mi
9:58 AM80 °FSunny.10 mph84%29.85 "Hg10 mi
8:58 AM77 °FSunny.9 mph90%29.86 "Hg10 mi
7:58 AM75 °FClear.7 mph94%29.85 "Hg10 mi
6:58 AM75 °FClear.6 mph94%29.85 "Hg10 mi
5:58 AM75 °FClear.7 mph93%29.83 "Hg10 mi
4:58 AM75 °FClear.5 mph93%29.81 "Hg10 mi
3:58 AM75 °FClear.5 mph94%29.81 "Hg10 mi
2:58 AM75 °FClear.5 mph93%29.82 "Hg10 mi
1:58 AM74 °FClear.5 mph94%29.83 "Hg10 mi
12:58 AM74 °FClear.5 mph95%29.85 "Hg10 mi
11:58 PM
Sep 29
74 °FClear.2 mph96%29.86 "Hg10 mi
10:58 PM74 °FClear.2 mph97%29.87 "Hg10 mi
9:58 PM73 °FClear.2 mph96%29.86 "Hg10 mi
9:03 PM73 °FClear.No wind94%29.87 "Hg10 mi
8:58 PM74 °FClear.No wind94%29.88 "Hg9 mi
8:50 PM73 °FClear.1 mph94%29.87 "Hg9 mi
Weather by CustomWeather, © 2014

See weather overviewHow to use our weather pages